Location: Unspecified
(56.5167°N, 0.0000°E)
Time: 12:46:53
(UTC+01:00)

Cosmos 1674 - Visible Passes

Search period start: 25 March 2017 00:00
Search period end: 04 April 2017 01:00
Orbit: 498 x 524 km, 82.5° (Epoch: 23 March)

Date Brightness Start Highest point End Pass type
(mag) Time Alt. Az. Time Alt. Az. Time Alt. Az.
25 Mar 2.9 20:54:03 10° NNW 20:57:49 72° W 21:01:35 10° S visible
26 Mar 2.7 21:37:35 10° NNW 21:41:24 87° WSW 21:45:11 10° S visible
26 Mar 5.8 23:14:59 10° WNW 23:16:23 12° W 23:17:46 10° WSW visible
27 Mar 2.6 21:21:10 10° N 21:24:57 77° ENE 21:28:45 10° SSE visible
27 Mar 5.6 22:58:02 10° NW 23:00:02 14° W 23:02:04 10° WSW visible
28 Mar 2.7 21:04:44 10° N 21:08:30 64° ENE 21:12:17 10° SSE visible
28 Mar 5.6 22:41:16 10° NW 22:43:42 17° W 22:46:09 10° SW visible
29 Mar 5.4 22:24:35 10° NW 22:27:21 20° W 22:30:08 10° SW visible
30 Mar 5.2 22:07:57 10° NW 22:11:00 23° W 22:14:02 10° SW visible
31 Mar 4.9 21:51:22 10° NNW 21:54:37 27° W 21:57:53 10° SSW visible
01 Apr 4.6 21:34:48 10° NNW 21:38:14 33° W 21:41:40 10° SSW visible
02 Apr 4.3 21:18:16 10° NNW 21:21:50 39° W 21:25:25 10° SSW visible
